Location: Stadlberg
(47.9690°N, 13.2636°E)
Time: 07:50:35
(UTC+01:00)

ISS - Visible Passes

Search period start: 24 March 2019 00:00
Search period end: 03 April 2019 01:00
Orbit: 408 x 411 km, 51.6° (Epoch: 24 March)

Date Brightness Start Highest point End Pass type
(mag) Time Alt. Az. Time Alt. Az. Time Alt. Az.
24 Mar -3.7 19:31:47 10° SW 19:35:01 57° SSE 19:37:09 19° ENE visible
24 Mar -1.4 21:08:29 10° W 21:09:56 23° WNW 21:09:56 23° WNW visible
25 Mar -3.4 20:17:42 10° W 20:20:58 58° NNW 20:21:38 46° NE visible
26 Mar -3.7 19:26:57 10° WSW 19:30:16 78° NNW 19:33:13 13° ENE visible
26 Mar -1.8 21:03:57 10° WNW 21:05:59 30° NW 21:05:59 30° NW visible
27 Mar -2.9 20:13:08 10° W 20:16:20 44° N 20:17:27 31° NE visible
27 Mar -0.4 21:50:01 10° WNW 21:50:13 11° WNW 21:50:13 11° WNW visible
28 Mar -3.1 19:22:18 10° W 19:25:33 51° NNW 19:28:48 10° ENE visible
28 Mar -2.2 20:59:17 10° WNW 21:01:37 35° NW 21:01:37 35° NW visible
29 Mar -2.8 20:08:30 10° WNW 20:11:41 42° N 20:12:58 28° NE visible
29 Mar -0.6 21:45:13 10° WNW 21:45:43 14° WNW 21:45:43 14° WNW visible
30 Mar -2.8 19:17:40 10° WNW 19:20:51 42° N 19:24:02 10° ENE visible
30 Mar -2.7 20:54:29 10° WNW 20:57:01 44° NW 20:57:01 44° NW visible
31 Mar -3.2 21:03:44 10° WNW 21:06:58 48° N 21:08:18 29° ENE visible
31 Mar -0.8 22:40:23 10° WNW 22:41:03 15° WNW 22:41:03 15° WNW visible
01 Apr -2.9 20:12:56 10° WNW 20:16:08 43° N 20:19:19 10° ENE visible
01 Apr -3.2 21:49:37 10° WNW 21:52:20 57° WNW 21:52:20 57° WNW visible
02 Apr -3.7 20:58:51 10° WNW 21:02:09 70° NNE 21:03:36 30° E visible
02 Apr -0.9 22:35:42 10° W 22:36:21 14° W 22:36:21 14° W visible
